Time,TemperatureF,DewpointF,PressureIn,WindDirection,WindDirectionDegrees,WindSpeedMPH,WindSpeedGustMPH,Humidity,HourlyPrecipIn,Conditions,Clouds,dailyrainin,SoftwareType,DateUTC
2013-02-20 00:00:00,51.0,49.9,30.00,NNW,348,1.0,4.0,96,0.00,,---,0.15,VWS V14.01,2013-02-20 05:00:00,
2013-02-20 00:01:00,51.0,49.9,30.00,NNW,348,0.0,2.0,96,0.00,,---,0.00,VWS V14.01,2013-02-20 05:01:00,
2013-02-20 00:04:00,51.0,49.9,30.00,NNW,348,1.0,3.0,96,0.00,,---,0.00,VWS V14.01,2013-02-20 05:04:00,
2013-02-20 00:07:00,50.9,49.8,30.00,North,349,0.0,3.0,96,0.00,,---,0.00,VWS V14.01,2013-02-20 05:07:00,
2013-02-20 00:10:00,50.9,49.8,30.00,North,349,1.0,3.0,96,0.00,,---,0.00,VWS V14.01,2013-02-20 05:10:00,
2013-02-20 00:13:00,50.8,49.7,30.00,North,349,0.0,3.0,96,0.00,,---,0.00,VWS V14.01,2013-02-20 05:13:00,
2013-02-20 00:15:00,50.8,49.7,30.01,North,349,1.0,3.0,96,0.00,,---,0.00,VWS V14.01,2013-02-20 05:15:00,
2013-02-20 00:16:00,50.7,49.6,30.01,North,349,0.0,1.0,96,0.00,,---,0.00,VWS V14.01,2013-02-20 05:16:00,
2013-02-20 00:20:00,50.6,49.5,30.01,NNW,348,2.0,5.0,96,0.00,,---,0.00,VWS V14.01,2013-02-20 05:20:00,
2013-02-20 00:22:00,50.5,49.4,30.01,NNW,348,0.0,5.0,96,0.00,,---,0.00,VWS V14.01,2013-02-20 05:22:00,
2013-02-20 00:25:00,50.5,49.4,30.01,NNW,348,0.0,5.0,96,0.00,,---,0.00,VWS V14.01,2013-02-20 05:25:00,
2013-02-20 00:28:00,50.3,49.2,30.01,NNW,348,0.0,5.0,96,0.00,,---,0.00,VWS V14.01,2013-02-20 05:28:00,
2013-02-20 00:30:00,50.3,49.2,30.01,NNW,348,0.0,5.0,96,0.00,,---,0.00,VWS V14.01,2013-02-20 05:30:00,
2013-02-20 00:32:00,50.2,49.1,30.01,NNW,348,0.0,0.0,96,0.00,,---,0.00,VWS V14.01,2013-02-20 05:32:00,
2013-02-20 00:35:00,50.1,48.7,30.01,NNW,348,0.0,0.0,95,0.00,,---,0.00,VWS V14.01,2013-02-20 05:35:00,
2013-02-20 00:38:00,50.0,48.6,30.01,NNW,348,0.0,0.0,95,0.00,,---,0.00,VWS V14.01,2013-02-20 05:38:00,
2013-02-20 00:41:00,49.9,48.5,30.01,NNW,348,0.0,0.0,95,0.00,,---,0.00,VWS V14.01,2013-02-20 05:41:00,
2013-02-20 00:50:00,49.6,48.2,30.01,NNW,348,0.0,0.0,95,0.00,,---,0.00,VWS V14.01,2013-02-20 05:50:00,
2013-02-20 00:53:00,49.5,48.1,30.01,NNW,348,0.0,2.0,95,0.00,,---,0.00,VWS V14.01,2013-02-20 05:53:00,
2013-02-20 00:56:00,49.4,48.0,30.01,NNW,348,0.0,2.0,95,0.00,,---,0.00,VWS V14.01,2013-02-20 05:56:00,
2013-02-20 00:59:00,49.3,47.9,30.02,NNW,348,0.0,2.0,95,0.00,,---,0.00,VWS V14.01,2013-02-20 05:59:00,
2013-02-20 01:00:00,49.2,47.8,30.02,NNW,348,0.0,2.0,95,0.00,,---,0.00,VWS V14.01,2013-02-20 06:00:00,
2013-02-20 01:02:00,49.2,47.8,30.02,NNW,348,0.0,0.0,95,0.00,,---,0.00,VWS V14.01,2013-02-20 06:02:00,
2013-02-20 01:05:00,49.1,47.7,30.02,NNW,348,0.0,0.0,95,0.00,,---,0.00,VWS V14.01,2013-02-20 06:05:00,
2013-02-20 01:08:00,49.0,47.6,30.02,NNW,348,0.0,0.0,95,0.00,,---,0.00,VWS V14.01,2013-02-20 06:08:00,
2013-02-20 01:11:00,48.9,47.5,30.02,NNW,348,0.0,0.0,95,0.00,,---,0.00,VWS V14.01,2013-02-20 06:11:00,
2013-02-20 01:14:00,48.8,47.4,30.03,NNW,348,0.0,0.0,95,0.00,,---,0.00,VWS V14.01,2013-02-20 06:14:00,
2013-02-20 01:15:00,48.8,47.4,30.03,NNW,348,0.0,0.0,95,0.00,,---,0.00,VWS V14.01,2013-02-20 06:15:00,
2013-02-20 01:17:00,48.7,47.3,30.03,NNW,348,0.0,1.0,95,0.00,,---,0.00,VWS V14.01,2013-02-20 06:17:00,
2013-02-20 01:20:00,48.6,47.2,30.03,NNW,348,0.0,1.0,95,0.00,,---,0.00,VWS V14.01,2013-02-20 06:20:00,
2013-02-20 01:23:00,48.5,47.1,30.03,NNW,348,0.0,1.0,95,0.00,,---,0.00,VWS V14.01,2013-02-20 06:23:00,
2013-02-20 01:26:00,48.4,47.0,30.03,NNW,348,0.0,2.0,95,0.00,,---,0.00,VWS V14.01,2013-02-20 06:26:00,
2013-02-20 01:29:00,48.3,46.9,30.02,NNW,348,0.0,2.0,95,0.00,,---,0.00,VWS V14.01,2013-02-20 06:29:00,
2013-02-20 01:30:00,48.3,46.9,30.02,NNW,348,0.0,2.0,95,0.00,,---,0.00,VWS V14.01,2013-02-20 06:30:00,
2013-02-20 01:32:00,48.2,46.8,30.02,NNW,348,0.0,1.0,95,0.00,,---,0.00,VWS V14.01,2013-02-20 06:32:00,
2013-02-20 01:35:00,48.2,46.8,30.02,NNW,348,0.0,1.0,95,0.00,,---,0.00,VWS V14.01,2013-02-20 06:35:00,
2013-02-20 01:38:00,48.1,46.7,30.02,NNW,348,0.0,1.0,95,0.00,,---,0.00,VWS V14.01,2013-02-20 06:38:00,
2013-02-20 01:41:00,48.0,46.6,30.02,NNW,348,1.0,1.0,95,0.00,,---,0.00,VWS V14.01,2013-02-20 06:41:00,
2013-02-20 01:44:00,47.9,46.5,30.02,NNW,348,0.0,1.0,95,0.00,,---,0.00,VWS V14.01,2013-02-20 06:44:00,
2013-02-20 01:45:00,47.9,46.5,30.02,NNW,348,0.0,1.0,95,0.00,,---,0.00,VWS V14.01,2013-02-20 06:45:00,
2013-02-20 01:47:00,47.8,46.4,30.02,NNW,348,0.0,0.0,95,0.00,,---,0.00,VWS V14.01,2013-02-20 06:47:00,
2013-02-20 01:50:00,47.7,46.3,30.02,NNW,348,0.0,1.0,95,0.00,,---,0.00,VWS V14.01,2013-02-20 06:50:00,
2013-02-20 01:53:00,47.6,46.2,30.02,NNW,348,0.0,2.0,95,0.00,,---,0.00,VWS V14.01,2013-02-20 06:53:00,
2013-02-20 01:56:00,47.5,46.1,30.02,NNW,348,0.0,2.0,95,0.00,,---,0.00,VWS V14.01,2013-02-20 06:56:00,
2013-02-20 01:59:00,47.4,46.0,30.03,NNW,348,0.0,2.0,95,0.00,,---,0.00,VWS V14.01,2013-02-20 06:59:00,
2013-02-20 02:00:00,47.4,46.0,30.03,NNW,348,0.0,2.0,95,0.00,,---,0.00,VWS V14.01,2013-02-20 07:00:00,
2013-02-20 02:02:00,47.3,45.7,30.03,NNW,348,0.0,1.0,94,0.00,,---,0.00,VWS V14.01,2013-02-20 07:02:00,
2013-02-20 02:05:00,47.2,45.6,30.03,NNW,348,0.0,1.0,94,0.00,,---,0.00,VWS V14.01,2013-02-20 07:05:00,
2013-02-20 02:08:00,47.1,45.5,30.03,NNW,348,0.0,2.0,94,0.00,,---,0.00,VWS V14.01,2013-02-20 07:08:00,
2013-02-20 02:11:00,47.0,45.4,30.03,NNW,348,0.0,2.0,94,0.00,,---,0.00,VWS V14.01,2013-02-20 07:11:00,
2013-02-20 02:14:00,46.8,45.2,30.02,NNW,348,0.0,3.0,94,0.00,,---,0.00,VWS V14.01,2013-02-20 07:14:00,
2013-02-20 02:15:00,46.8,45.2,30.02,NNW,348,0.0,3.0,94,0.00,,---,0.00,VWS V14.01,2013-02-20 07:15:00,
2013-02-20 02:17:00,46.7,45.1,30.02,North,355,0.0,3.0,94,0.00,,---,0.00,VWS V14.01,2013-02-20 07:17:00,
2013-02-20 02:20:00,46.6,44.7,30.02,North,355,0.0,3.0,93,0.00,,---,0.00,VWS V14.01,2013-02-20 07:20:00,
2013-02-20 02:23:00,46.5,44.6,30.02,North,355,1.0,3.0,93,0.00,,---,0.00,VWS V14.01,2013-02-20 07:23:00,
2013-02-20 02:26:00,46.3,44.4,30.02,North,355,0.0,3.0,93,0.00,,---,0.00,VWS V14.01,2013-02-20 07:26:00,
2013-02-20 02:29:00,46.2,44.3,30.02,North,355,0.0,3.0,93,0.00,,---,0.00,VWS V14.01,2013-02-20 07:29:00,
2013-02-20 02:30:00,46.2,44.3,30.02,North,355,0.0,3.0,93,0.00,,---,0.00,VWS V14.01,2013-02-20 07:30:00,
2013-02-20 02:32:00,46.1,43.9,30.02,North,355,1.0,1.0,92,0.00,,---,0.00,VWS V14.01,2013-02-20 07:32:00,
2013-02-20 02:35:00,46.0,43.8,30.02,NNW,344,1.0,6.0,92,0.00,,---,0.00,VWS V14.01,2013-02-20 07:35:00,
2013-02-20 02:38:00,45.9,43.4,30.02,North,360,0.0,6.0,91,0.00,,---,0.00,VWS V14.01,2013-02-20 07:38:00,
2013-02-20 02:41:00,45.8,43.3,30.02,NNW,334,2.0,6.0,91,0.00,,---,0.00,VWS V14.01,2013-02-20 07:41:00,
2013-02-20 02:44:00,45.6,42.8,30.03,North,350,3.0,6.0,90,0.00,,---,0.00,VWS V14.01,2013-02-20 07:44:00,
2013-02-20 02:45:00,45.6,42.8,30.03,North,350,2.0,6.0,90,0.00,,---,0.00,VWS V14.01,2013-02-20 07:45:00,
2013-02-20 02:47:00,45.6,42.8,30.03,North,350,1.0,2.0,90,0.00,,---,0.00,VWS V14.01,2013-02-20 07:47:00,
2013-02-20 02:57:00,45.3,42.3,30.03,North,349,0.0,2.0,89,0.00,,---,0.00,VWS V14.01,2013-02-20 07:57:00,
2013-02-20 03:00:00,45.2,42.2,30.03,North,349,2.0,3.0,89,0.00,,---,0.00,VWS V14.01,2013-02-20 08:00:00,
2013-02-20 03:03:00,45.1,41.8,30.03,North,349,1.0,2.0,88,0.00,,---,0.00,VWS V14.01,2013-02-20 08:03:00,
2013-02-20 03:06:00,45.0,41.7,30.03,NNW,348,1.0,4.0,88,0.00,,---,0.00,VWS V14.01,2013-02-20 08:06:00,
2013-02-20 03:09:00,44.9,41.3,30.03,North,351,1.0,5.0,87,0.00,,---,0.00,VWS V14.01,2013-02-20 08:09:00,
2013-02-20 03:12:00,44.8,40.9,30.03,North,351,1.0,5.0,86,0.00,,---,0.00,VWS V14.01,2013-02-20 08:12:00,
2013-02-20 03:15:00,44.7,40.8,30.03,North,351,1.0,5.0,86,0.00,,---,0.00,VWS V14.01,2013-02-20 08:15:00,
2013-02-20 03:18:00,44.6,40.4,30.03,NNW,348,0.0,7.0,85,0.00,,---,0.00,VWS V14.01,2013-02-20 08:18:00,
2013-02-20 03:21:00,44.6,40.4,30.03,NNW,348,1.0,7.0,85,0.00,,---,0.00,VWS V14.01,2013-02-20 08:21:00,
2013-02-20 03:24:00,44.5,40.0,30.03,NNW,348,1.0,7.0,84,0.00,,---,0.00,VWS V14.01,2013-02-20 08:24:00,
2013-02-20 03:27:00,44.4,39.9,30.03,NNW,348,0.0,7.0,84,0.00,,---,0.00,VWS V14.01,2013-02-20 08:27:00,
2013-02-20 03:30:00,44.4,39.6,30.03,NNW,348,2.0,7.0,83,0.00,,---,0.00,VWS V14.01,2013-02-20 08:30:00,
2013-02-20 03:33:00,44.3,39.5,30.03,NNW,348,1.0,3.0,83,0.00,,---,0.00,VWS V14.01,2013-02-20 08:33:00,
2013-02-20 03:36:00,44.2,39.4,30.03,NNW,348,2.0,3.0,83,0.00,,---,0.00,VWS V14.01,2013-02-20 08:36:00,
2013-02-20 03:39:00,44.2,39.4,30.03,NNW,348,0.0,3.0,83,0.00,,---,0.00,VWS V14.01,2013-02-20 08:39:00,
2013-02-20 03:42:00,44.1,39.0,30.03,NNW,348,0.0,3.0,82,0.00,,---,0.00,VWS V14.01,2013-02-20 08:42:00,
2013-02-20 03:45:00,44.0,39.2,30.03,NNW,348,1.0,3.0,83,0.00,,---,0.00,VWS V14.01,2013-02-20 08:45:00,
2013-02-20 03:48:00,43.9,38.8,30.03,NNW,348,0.0,1.0,82,0.00,,---,0.00,VWS V14.01,2013-02-20 08:48:00,
2013-02-20 03:51:00,43.8,39.0,30.03,NNW,348,0.0,1.0,83,0.00,,---,0.00,VWS V14.01,2013-02-20 08:51:00,
2013-02-20 03:54:00,43.7,38.6,30.03,NNW,348,1.0,1.0,82,0.00,,---,0.00,VWS V14.01,2013-02-20 08:54:00,
2013-02-20 03:57:00,43.6,38.2,30.03,North,5,0.0,4.0,81,0.00,,---,0.00,VWS V14.01,2013-02-20 08:57:00,
2013-02-20 04:00:00,43.5,38.1,30.04,North,11,0.0,4.0,81,0.00,,---,0.00,VWS V14.01,2013-02-20 09:00:00,
2013-02-20 04:03:00,43.4,38.3,30.04,North,11,0.0,2.0,82,0.00,,---,0.00,VWS V14.01,2013-02-20 09:03:00,
2013-02-20 04:06:00,43.3,38.2,30.04,North,11,0.0,2.0,82,0.00,,---,0.00,VWS V14.01,2013-02-20 09:06:00,
2013-02-20 04:09:00,43.2,38.1,30.04,North,11,0.0,2.0,82,0.00,,---,0.00,VWS V14.01,2013-02-20 09:09:00,
2013-02-20 04:12:00,43.1,37.7,30.04,North,11,0.0,2.0,81,0.00,,---,0.00,VWS V14.01,2013-02-20 09:12:00,
2013-02-20 04:15:00,43.0,37.6,30.04,North,11,0.0,3.0,81,0.00,,---,0.00,VWS V14.01,2013-02-20 09:15:00,
2013-02-20 04:18:00,42.9,37.2,30.04,North,11,1.0,3.0,80,0.00,,---,0.00,VWS V14.01,2013-02-20 09:18:00,
2013-02-20 04:21:00,42.8,37.1,30.04,North,11,0.0,3.0,80,0.00,,---,0.00,VWS V14.01,2013-02-20 09:21:00,
2013-02-20 04:24:00,42.7,36.7,30.04,North,9,0.0,5.0,79,0.00,,---,0.00,VWS V14.01,2013-02-20 09:24:00,
2013-02-20 04:27:00,42.7,37.0,30.04,North,9,0.0,5.0,80,0.00,,---,0.00,VWS V14.01,2013-02-20 09:27:00,
2013-02-20 04:30:00,42.6,36.5,30.04,North,9,0.0,5.0,79,0.00,,---,0.00,VWS V14.01,2013-02-20 09:30:00,
2013-02-20 04:33:00,42.5,36.8,30.04,North,9,0.0,2.0,80,0.00,,---,0.00,VWS V14.01,2013-02-20 09:33:00,
2013-02-20 04:36:00,42.5,36.8,30.04,North,9,0.0,2.0,80,0.00,,---,0.00,VWS V14.01,2013-02-20 09:36:00,
2013-02-20 04:39:00,42.4,36.7,30.04,North,9,0.0,2.0,80,0.00,,---,0.00,VWS V14.01,2013-02-20 09:39:00,
2013-02-20 04:42:00,42.3,36.6,30.04,North,9,0.0,2.0,80,0.00,,---,0.00,VWS V14.01,2013-02-20 09:42:00,
2013-02-20 04:45:00,42.2,36.5,30.04,North,9,0.0,2.0,80,0.00,,---,0.00,VWS V14.01,2013-02-20 09:45:00,
2013-02-20 04:48:00,42.1,36.4,30.04,North,9,0.0,0.0,80,0.00,,---,0.00,VWS V14.01,2013-02-20 09:48:00,
2013-02-20 04:51:00,42.0,36.3,30.04,North,9,0.0,0.0,80,0.00,,---,0.00,VWS V14.01,2013-02-20 09:51:00,
2013-02-20 04:54:00,41.9,36.2,30.04,North,9,0.0,0.0,80,0.00,,---,0.00,VWS V14.01,2013-02-20 09:54:00,
2013-02-20 04:57:00,41.8,36.4,30.04,North,9,0.0,0.0,81,0.00,,---,0.00,VWS V14.01,2013-02-20 09:57:00,
2013-02-20 05:00:00,41.7,36.3,30.05,North,9,0.0,0.0,81,0.00,,---,0.00,VWS V14.01,2013-02-20 10:00:00,
2013-02-20 05:03:00,41.6,36.2,30.05,North,9,0.0,0.0,81,0.00,,---,0.00,VWS V14.01,2013-02-20 10:03:00,
2013-02-20 05:06:00,41.5,36.1,30.05,North,9,0.0,0.0,81,0.00,,---,0.00,VWS V14.01,2013-02-20 10:06:00,
2013-02-20 05:09:00,41.4,36.0,30.05,North,9,0.0,0.0,81,0.00,,---,0.00,VWS V14.01,2013-02-20 10:09:00,
2013-02-20 05:12:00,41.3,35.9,30.05,North,9,0.0,0.0,81,0.00,,---,0.00,VWS V14.01,2013-02-20 10:12:00,
2013-02-20 05:15:00,41.1,35.7,30.06,North,9,0.0,0.0,81,0.00,,---,0.00,VWS V14.01,2013-02-20 10:15:00,
2013-02-20 05:18:00,41.0,35.6,30.06,North,9,0.0,0.0,81,0.00,,---,0.00,VWS V14.01,2013-02-20 10:18:00,
2013-02-20 05:21:00,40.9,35.5,30.06,North,9,0.0,0.0,81,0.00,,---,0.00,VWS V14.01,2013-02-20 10:21:00,
2013-02-20 05:24:00,40.8,35.4,30.06,North,9,0.0,0.0,81,0.00,,---,0.00,VWS V14.01,2013-02-20 10:24:00,
2013-02-20 05:27:00,40.7,35.6,30.06,North,9,0.0,0.0,82,0.00,,---,0.00,VWS V14.01,2013-02-20 10:27:00,
2013-02-20 05:30:00,40.5,35.5,30.06,North,9,0.0,0.0,82,0.00,,---,0.00,VWS V14.01,2013-02-20 10:30:00,
2013-02-20 05:33:00,40.4,35.3,30.06,North,9,0.0,0.0,82,0.00,,---,0.00,VWS V14.01,2013-02-20 10:33:00,
2013-02-20 05:36:00,40.3,34.9,30.06,North,9,0.0,0.0,81,0.00,,---,0.00,VWS V14.01,2013-02-20 10:36:00,
2013-02-20 05:39:00,40.2,35.2,30.06,North,9,0.0,0.0,82,0.00,,---,0.00,VWS V14.01,2013-02-20 10:39:00,
2013-02-20 05:42:00,40.0,35.0,30.06,North,9,0.0,0.0,82,0.00,,---,0.00,VWS V14.01,2013-02-20 10:42:00,
2013-02-20 05:45:00,39.9,34.9,30.06,North,9,0.0,0.0,82,0.00,,---,0.00,VWS V14.01,2013-02-20 10:45:00,
2013-02-20 05:48:00,39.7,34.7,30.06,North,9,0.0,0.0,82,0.00,,---,0.00,VWS V14.01,2013-02-20 10:48:00,
2013-02-20 05:51:00,39.6,34.6,30.06,North,9,0.0,0.0,82,0.00,,---,0.00,VWS V14.01,2013-02-20 10:51:00,
2013-02-20 05:54:00,39.4,34.4,30.06,North,9,0.0,0.0,82,0.00,,---,0.00,VWS V14.01,2013-02-20 10:54:00,
2013-02-20 05:57:00,39.3,34.3,30.06,North,9,0.0,0.0,82,0.00,,---,0.00,VWS V14.01,2013-02-20 10:57:00,
2013-02-20 06:00:00,39.2,34.2,30.06,North,9,0.0,0.0,82,0.00,,---,0.00,VWS V14.01,2013-02-20 11:00:00,
2013-02-20 06:03:00,39.0,34.0,30.06,North,9,0.0,0.0,82,0.00,,---,0.00,VWS V14.01,2013-02-20 11:03:00,
2013-02-20 06:06:00,38.9,33.9,30.06,North,9,0.0,0.0,82,0.00,,---,0.00,VWS V14.01,2013-02-20 11:06:00,
2013-02-20 06:09:00,38.7,34.0,30.06,North,9,0.0,0.0,83,0.00,,---,0.00,VWS V14.01,2013-02-20 11:09:00,
2013-02-20 06:12:00,38.6,33.9,30.06,North,9,0.0,0.0,83,0.00,,---,0.00,VWS V14.01,2013-02-20 11:12:00,
2013-02-20 06:15:00,38.5,33.8,30.07,North,9,0.0,0.0,83,0.00,,---,0.00,VWS V14.01,2013-02-20 11:15:00,
2013-02-20 06:18:00,38.4,33.7,30.07,North,9,0.0,0.0,83,0.00,,---,0.00,VWS V14.01,2013-02-20 11:18:00,
2013-02-20 06:21:00,38.2,33.5,30.07,North,9,0.0,0.0,83,0.00,,---,0.00,VWS V14.01,2013-02-20 11:21:00,
2013-02-20 06:24:00,38.1,33.7,30.07,North,9,0.0,0.0,84,0.00,,---,0.00,VWS V14.01,2013-02-20 11:24:00,
2013-02-20 06:27:00,38.0,33.6,30.07,North,9,0.0,0.0,84,0.00,,---,0.00,VWS V14.01,2013-02-20 11:27:00,
2013-02-20 06:30:00,37.9,33.5,30.07,North,9,0.0,0.0,84,0.00,,---,0.00,VWS V14.01,2013-02-20 11:30:00,
2013-02-20 06:33:00,37.8,33.4,30.07,North,9,0.0,0.0,84,0.00,,---,0.00,VWS V14.01,2013-02-20 11:33:00,
2013-02-20 06:36:00,37.7,33.6,30.07,North,9,0.0,0.0,85,0.00,,---,0.00,VWS V14.01,2013-02-20 11:36:00,
2013-02-20 06:39:00,37.6,33.2,30.07,North,9,0.0,0.0,84,0.00,,---,0.00,VWS V14.01,2013-02-20 11:39:00,
2013-02-20 06:42:00,37.5,33.4,30.07,North,9,0.0,0.0,85,0.00,,---,0.00,VWS V14.01,2013-02-20 11:42:00,
2013-02-20 06:45:00,37.4,33.3,30.08,North,9,0.0,0.0,85,0.00,,---,0.00,VWS V14.01,2013-02-20 11:45:00,
2013-02-20 06:48:00,37.2,33.1,30.08,North,9,0.0,0.0,85,0.00,,---,0.00,VWS V14.01,2013-02-20 11:48:00,
2013-02-20 06:51:00,37.1,33.0,30.08,North,9,0.0,0.0,85,0.00,,---,0.00,VWS V14.01,2013-02-20 11:51:00,
2013-02-20 06:54:00,37.0,32.9,30.08,North,9,0.0,0.0,85,0.00,,---,0.00,VWS V14.01,2013-02-20 11:54:00,
2013-02-20 06:57:00,36.9,33.1,30.08,North,9,0.0,0.0,86,0.00,,---,0.00,VWS V14.01,2013-02-20 11:57:00,
2013-02-20 07:00:00,36.9,33.1,30.09,North,9,0.0,0.0,86,0.00,,---,0.00,VWS V14.01,2013-02-20 12:00:00,
2013-02-20 07:03:00,36.7,32.9,30.09,North,9,0.0,0.0,86,0.00,,---,0.00,VWS V14.01,2013-02-20 12:03:00,
2013-02-20 07:06:00,36.6,33.1,30.09,North,9,0.0,0.0,87,0.00,,---,0.00,VWS V14.01,2013-02-20 12:06:00,
2013-02-20 07:09:00,36.5,33.0,30.09,North,9,0.0,0.0,87,0.00,,---,0.00,VWS V14.01,2013-02-20 12:09:00,
2013-02-20 07:15:00,36.4,33.2,30.09,North,9,0.0,0.0,88,0.00,,---,0.00,VWS V14.01,2013-02-20 12:15:00,
2013-02-20 07:16:00,36.4,32.9,30.09,North,9,0.0,0.0,87,0.00,,---,0.00,VWS V14.01,2013-02-20 12:16:00,
2013-02-20 07:19:00,36.3,33.1,30.09,North,9,0.0,0.0,88,0.00,,---,0.00,VWS V14.01,2013-02-20 12:19:00,
2013-02-20 07:22:00,36.3,33.1,30.09,North,9,0.0,0.0,88,0.00,,---,0.00,VWS V14.01,2013-02-20 12:22:00,
2013-02-20 07:23:00,36.5,33.0,30.09,North,9,0.0,0.0,87,0.00,,---,0.00,VWS V14.01,2013-02-20 12:23:00,
2013-02-20 07:24:00,36.2,33.0,30.09,North,9,0.0,0.0,88,0.00,,---,0.00,VWS V14.01,2013-02-20 12:24:00,
2013-02-20 07:27:00,36.2,33.3,30.09,North,9,0.0,0.0,89,0.00,,---,0.00,VWS V14.01,2013-02-20 12:27:00,
2013-02-20 07:30:00,36.2,33.3,30.10,North,9,0.0,0.0,89,0.00,,---,0.00,VWS V14.01,2013-02-20 12:30:00,
2013-02-20 07:31:00,36.2,33.3,30.10,North,9,0.0,0.0,89,0.00,,---,0.00,VWS V14.01,2013-02-20 12:31:00,
2013-02-20 07:34:00,36.3,33.7,30.10,North,9,0.0,0.0,90,0.00,,---,0.00,VWS V14.01,2013-02-20 12:34:00,
2013-02-20 07:37:00,36.3,33.7,30.10,North,9,0.0,0.0,90,0.00,,---,0.00,VWS V14.01,2013-02-20 12:37:00,
2013-02-20 07:40:00,36.5,33.8,30.10,North,9,0.0,0.0,90,0.00,,---,0.00,VWS V14.01,2013-02-20 12:40:00,
2013-02-20 07:43:00,36.6,34.0,30.10,North,9,0.0,0.0,90,0.00,,---,0.00,VWS V14.01,2013-02-20 12:43:00,
2013-02-20 07:45:00,36.7,34.0,30.11,North,9,0.0,2.0,90,0.00,,---,0.00,VWS V14.01,2013-02-20 12:45:00,
2013-02-20 07:46:00,36.8,34.2,30.11,North,9,0.0,0.0,90,0.00,,---,0.00,VWS V14.01,2013-02-20 12:46:00,
2013-02-20 07:49:00,37.1,34.2,30.11,North,5,0.0,4.0,89,0.00,,---,0.00,VWS V14.01,2013-02-20 12:49:00,
2013-02-20 07:52:00,37.4,34.2,30.11,North,5,0.0,4.0,88,0.00,,---,0.00,VWS V14.01,2013-02-20 12:52:00,
2013-02-20 07:55:00,37.6,34.1,30.11,North,5,0.0,4.0,87,0.00,,---,0.00,VWS V14.01,2013-02-20 12:55:00,
2013-02-20 07:58:00,37.9,34.1,30.11,North,5,0.0,4.0,86,0.00,,---,0.00,VWS V14.01,2013-02-20 12:58:00,
2013-02-20 08:00:00,38.1,34.3,30.11,North,5,0.0,4.0,86,0.00,,---,0.00,VWS V14.01,2013-02-20 13:00:00,
2013-02-20 08:01:00,38.3,34.5,30.11,North,5,0.0,4.0,86,0.00,,---,0.00,VWS V14.01,2013-02-20 13:01:00,
2013-02-20 08:04:00,38.6,34.5,30.11,North,5,0.0,4.0,85,0.00,,---,0.00,VWS V14.01,2013-02-20 13:04:00,
2013-02-20 08:07:00,38.9,34.2,30.11,North,5,0.0,4.0,83,0.00,,---,0.00,VWS V14.01,2013-02-20 13:07:00,
2013-02-20 08:10:00,39.3,34.3,30.11,North,5,0.0,4.0,82,0.00,,---,0.00,VWS V14.01,2013-02-20 13:10:00,
2013-02-20 08:13:00,39.7,34.4,30.11,North,5,0.0,4.0,81,0.00,,---,0.00,VWS V14.01,2013-02-20 13:13:00,
2013-02-20 08:15:00,39.9,34.5,30.11,North,5,0.0,4.0,81,0.00,,---,0.00,VWS V14.01,2013-02-20 13:15:00,
2013-02-20 08:16:00,40.0,34.3,30.11,North,5,0.0,0.0,80,0.00,,---,0.00,VWS V14.01,2013-02-20 13:16:00,
2013-02-20 08:19:00,40.5,34.5,30.11,North,360,1.0,6.0,79,0.00,,---,0.00,VWS V14.01,2013-02-20 13:19:00,
2013-02-20 08:22:00,40.9,34.3,30.11,NNW,333,3.0,6.0,77,0.00,,---,0.00,VWS V14.01,2013-02-20 13:22:00,
2013-02-20 08:25:00,41.3,34.3,30.11,NNW,327,0.0,6.0,76,0.00,,---,0.00,VWS V14.01,2013-02-20 13:25:00,
2013-02-20 08:28:00,41.6,34.6,30.11,NNW,330,0.0,6.0,76,0.00,,---,0.00,VWS V14.01,2013-02-20 13:28:00,
2013-02-20 08:30:00,41.7,34.7,30.12,NNW,329,0.0,6.0,76,0.00,,---,0.00,VWS V14.01,2013-02-20 13:30:00,
2013-02-20 08:31:00,41.8,34.8,30.12,NNW,329,1.0,2.0,76,0.00,,---,0.00,VWS V14.01,2013-02-20 13:31:00,
2013-02-20 08:34:00,41.9,35.2,30.12,NNW,334,2.0,3.0,77,0.00,,---,0.00,VWS V14.01,2013-02-20 13:34:00,
2013-02-20 08:37:00,42.1,34.8,30.12,NNW,339,0.0,3.0,75,0.00,,---,0.00,VWS V14.01,2013-02-20 13:37:00,
2013-02-20 08:40:00,42.3,35.0,30.12,NNW,339,1.0,4.0,75,0.00,,---,0.00,VWS V14.01,2013-02-20 13:40:00,
2013-02-20 08:43:00,42.5,34.8,30.12,NNW,342,0.0,4.0,74,0.00,,---,0.00,VWS V14.01,2013-02-20 13:43:00,
2013-02-20 08:45:00,42.6,35.2,30.12,NNW,342,0.0,4.0,75,0.00,,---,0.00,VWS V14.01,2013-02-20 13:45:00,
2013-02-20 08:46:00,42.7,35.0,30.12,NNW,342,0.0,3.0,74,0.00,,---,0.00,VWS V14.01,2013-02-20 13:46:00,
2013-02-20 08:49:00,42.8,34.4,30.12,NNW,342,2.0,3.0,72,0.00,,---,0.00,VWS V14.01,2013-02-20 13:49:00,
2013-02-20 08:52:00,43.0,34.6,30.12,North,360,2.0,5.0,72,0.00,,---,0.00,VWS V14.01,2013-02-20 13:52:00,
2013-02-20 08:55:00,43.2,34.8,30.12,North,360,2.0,5.0,72,0.00,,---,0.00,VWS V14.01,2013-02-20 13:55:00,
2013-02-20 08:58:00,43.4,34.6,30.12,North,360,2.0,5.0,71,0.00,,---,0.00,VWS V14.01,2013-02-20 13:58:00,
2013-02-20 09:00:00,43.5,35.1,30.12,North,360,2.0,5.0,72,0.00,,---,0.00,VWS V14.01,2013-02-20 14:00:00,
2013-02-20 09:01:00,43.5,35.1,30.12,NNW,333,0.0,5.0,72,0.00,,---,0.00,VWS V14.01,2013-02-20 14:01:00,
2013-02-20 09:04:00,43.7,34.9,30.12,NE,36,1.0,5.0,71,0.00,,---,0.00,VWS V14.01,2013-02-20 14:04:00,
2013-02-20 09:07:00,43.8,35.4,30.12,NNE,31,0.0,5.0,72,0.00,,---,0.00,VWS V14.01,2013-02-20 14:07:00,
2013-02-20 09:10:00,44.0,35.6,30.12,NNE,31,1.0,5.0,72,0.00,,---,0.00,VWS V14.01,2013-02-20 14:10:00,
2013-02-20 09:13:00,44.2,35.8,30.12,NNE,21,0.0,5.0,72,0.00,,---,0.00,VWS V14.01,2013-02-20 14:13:00,
2013-02-20 09:15:00,44.3,35.9,30.12,NW,323,0.0,5.0,72,0.00,,---,0.00,VWS V14.01,2013-02-20 14:15:00,
2013-02-20 09:16:00,44.3,35.5,30.12,NW,323,0.0,0.0,71,0.00,,---,0.00,VWS V14.01,2013-02-20 14:16:00,
2013-02-20 09:19:00,44.5,35.3,30.12,NNW,336,4.0,4.0,70,0.00,,---,0.00,VWS V14.01,2013-02-20 14:19:00,
2013-02-20 09:22:00,44.9,35.4,30.12,NNE,13,0.0,6.0,69,0.00,,---,0.00,VWS V14.01,2013-02-20 14:22:00,
2013-02-20 09:25:00,45.0,34.7,30.12,North,355,0.0,6.0,67,0.00,,---,0.00,VWS V14.01,2013-02-20 14:25:00,
2013-02-20 09:28:00,45.2,35.7,30.12,North,355,0.0,6.0,69,0.00,,---,0.00,VWS V14.01,2013-02-20 14:28:00,
2013-02-20 09:30:00,45.3,35.4,30.12,NNW,343,0.0,6.0,68,0.00,,---,0.00,VWS V14.01,2013-02-20 14:30:00,
2013-02-20 09:31:00,45.4,34.7,30.12,North,355,1.0,3.0,66,0.00,,---,0.00,VWS V14.01,2013-02-20 14:31:00,
2013-02-20 09:34:00,45.6,34.9,30.12,North,355,2.0,3.0,66,0.00,,---,0.00,VWS V14.01,2013-02-20 14:34:00,
2013-02-20 09:37:00,45.7,34.2,30.12,NNW,329,0.0,4.0,64,0.00,,---,0.00,VWS V14.01,2013-02-20 14:37:00,
2013-02-20 09:40:00,46.0,34.9,30.12,North,5,0.0,6.0,65,0.00,,---,0.00,VWS V14.01,2013-02-20 14:40:00,
2013-02-20 09:43:00,46.2,35.1,30.12,NE,40,0.0,6.0,65,0.00,,---,0.00,VWS V14.01,2013-02-20 14:43:00,
2013-02-20 09:45:00,46.4,34.5,30.12,NNE,15,0.0,6.0,63,0.00,,---,0.00,VWS V14.01,2013-02-20 14:45:00,
2013-02-20 09:46:00,46.5,34.6,30.12,NNE,15,0.0,0.0,63,0.00,,---,0.00,VWS V14.01,2013-02-20 14:46:00,
2013-02-20 09:49:00,46.8,33.7,30.12,North,5,4.0,5.0,60,0.00,,---,0.00,VWS V14.01,2013-02-20 14:49:00,
2013-02-20 09:52:00,47.1,33.1,30.12,North,355,3.0,5.0,58,0.00,,---,0.00,VWS V14.01,2013-02-20 14:52:00,
2013-02-20 09:55:00,47.3,33.3,30.12,NNE,15,0.0,5.0,58,0.00,,---,0.00,VWS V14.01,2013-02-20 14:55:00,
2013-02-20 09:58:00,47.5,34.7,30.12,NNE,19,1.0,5.0,61,0.00,,---,0.00,VWS V14.01,2013-02-20 14:58:00,
2013-02-20 10:00:00,47.6,34.0,30.11,NNE,16,0.0,5.0,59,0.00,,---,0.00,VWS V14.01,2013-02-20 15:00:00,
2013-02-20 10:01:00,47.6,34.0,30.11,North,355,3.0,3.0,59,0.00,,---,0.00,VWS V14.01,2013-02-20 15:01:00,
2013-02-20 10:04:00,47.7,33.2,30.11,North,355,0.0,4.0,57,0.00,,---,0.00,VWS V14.01,2013-02-20 15:04:00,
2013-02-20 10:07:00,47.9,33.8,30.11,North,5,3.0,4.0,58,0.00,,---,0.00,VWS V14.01,2013-02-20 15:07:00,
2013-02-20 10:10:00,48.1,32.7,30.11,ESE,102,3.0,5.0,55,0.00,,---,0.00,VWS V14.01,2013-02-20 15:10:00,
2013-02-20 10:13:00,48.3,33.8,30.11,ESE,102,0.0,5.0,57,0.00,,---,0.00,VWS V14.01,2013-02-20 15:13:00,
2013-02-20 10:15:00,48.4,34.3,30.10,ESE,102,0.0,5.0,58,0.00,,---,0.00,VWS V14.01,2013-02-20 15:15:00,
2013-02-20 10:16:00,48.5,34.0,30.10,North,9,3.0,5.0,57,0.00,,---,0.00,VWS V14.01,2013-02-20 15:16:00,
2013-02-20 10:19:00,48.7,32.8,30.10,ESE,107,4.0,5.0,54,0.00,,---,0.00,VWS V14.01,2013-02-20 15:19:00,
2013-02-20 10:22:00,48.8,33.4,30.10,East,86,0.0,5.0,55,0.00,,---,0.00,VWS V14.01,2013-02-20 15:22:00,
2013-02-20 10:25:00,49.1,32.2,30.10,East,79,1.0,5.0,52,0.00,,---,0.00,VWS V14.01,2013-02-20 15:25:00,
2013-02-20 10:28:00,49.3,32.0,30.10,North,355,0.0,5.0,51,0.00,,---,0.00,VWS V14.01,2013-02-20 15:28:00,
2013-02-20 10:30:00,49.4,32.5,30.12,North,355,0.0,5.0,52,0.00,,---,0.00,VWS V14.01,2013-02-20 15:30:00,
2013-02-20 10:31:00,49.5,32.1,30.12,NE,39,0.0,2.0,51,0.00,,---,0.00,VWS V14.01,2013-02-20 15:31:00,
2013-02-20 10:34:00,49.6,32.2,30.12,NNE,15,0.0,5.0,51,0.00,,---,0.00,VWS V14.01,2013-02-20 15:34:00,
2013-02-20 10:37:00,49.7,32.8,30.12,NNE,15,0.0,5.0,52,0.00,,---,0.00,VWS V14.01,2013-02-20 15:37:00,
2013-02-20 10:40:00,49.9,32.5,30.12,NNE,17,0.0,5.0,51,0.00,,---,0.00,VWS V14.01,2013-02-20 15:40:00,
2013-02-20 10:43:00,50.1,33.7,30.12,NNE,17,0.0,5.0,53,0.00,,---,0.00,VWS V14.01,2013-02-20 15:43:00,
2013-02-20 10:45:00,50.2,33.3,30.11,NNE,17,0.0,5.0,52,0.00,,---,0.00,VWS V14.01,2013-02-20 15:45:00,
2013-02-20 10:46:00,50.3,32.4,30.11,ENE,78,0.0,1.0,50,0.00,,---,0.00,VWS V14.01,2013-02-20 15:46:00,
2013-02-20 10:49:00,50.7,32.2,30.11,North,9,0.0,4.0,49,0.00,,---,0.00,VWS V14.01,2013-02-20 15:49:00,
2013-02-20 10:52:00,50.9,30.3,30.11,NE,42,1.0,4.0,45,0.00,,---,0.00,VWS V14.01,2013-02-20 15:52:00,
2013-02-20 10:55:00,51.2,30.6,30.11,North,5,0.0,4.0,45,0.00,,---,0.00,VWS V14.01,2013-02-20 15:55:00,
2013-02-20 11:00:00,51.5,31.4,30.12,North,360,0.0,4.0,46,0.00,,---,0.00,VWS V14.01,2013-02-20 16:00:00,
2013-02-20 11:01:00,51.6,32.0,30.12,North,360,0.0,0.0,47,0.00,,---,0.00,VWS V14.01,2013-02-20 16:01:00,
2013-02-20 11:07:00,52.1,31.4,30.12,NNW,344,0.0,5.0,45,0.00,,---,0.00,VWS V14.01,2013-02-20 16:07:00,
2013-02-20 11:09:00,51.4,30.8,30.11,North,360,1.0,4.0,45,0.00,,---,0.00,VWS V14.01,2013-02-20 16:09:00,
2013-02-20 11:13:00,52.6,31.9,30.12,NNE,15,0.0,5.0,45,0.00,,---,0.00,VWS V14.01,2013-02-20 16:13:00,
2013-02-20 11:15:00,52.0,32.9,30.12,North,360,3.0,3.0,48,0.00,,---,0.00,VWS V14.01,2013-02-20 16:15:00,
2013-02-20 11:16:00,53.1,32.9,30.12,NNE,28,0.0,1.0,46,0.00,,---,0.00,VWS V14.01,2013-02-20 16:16:00,
2013-02-20 11:19:00,53.4,30.9,30.12,NNE,22,2.0,5.0,42,0.00,,---,0.00,VWS V14.01,2013-02-20 16:19:00,
2013-02-20 11:21:00,52.3,31.0,30.12,ENE,61,0.0,5.0,44,0.00,,---,0.00,VWS V14.01,2013-02-20 16:21:00,
2013-02-20 11:22:00,53.4,30.9,30.12,NNE,13,2.0,5.0,42,0.00,,---,0.00,VWS V14.01,2013-02-20 16:22:00,
2013-02-20 11:25:00,53.4,31.5,30.12,North,11,1.0,5.0,43,0.00,,---,0.00,VWS V14.01,2013-02-20 16:25:00,
2013-02-20 11:28:00,53.5,31.6,30.12,North,11,0.0,5.0,43,0.00,,---,0.00,VWS V14.01,2013-02-20 16:28:00,
2013-02-20 11:30:00,53.4,30.9,30.10,NNE,17,4.0,5.0,42,0.00,,---,0.00,VWS V14.01,2013-02-20 16:30:00,
2013-02-20 11:31:00,53.4,31.5,30.10,NNE,17,0.0,4.0,43,0.00,,---,0.00,VWS V14.01,2013-02-20 16:31:00,
2013-02-20 11:34:00,53.7,31.8,30.10,North,5,2.0,5.0,43,0.00,,---,0.00,VWS V14.01,2013-02-20 16:34:00,
2013-02-20 11:37:00,54.0,31.5,30.10,NNE,25,0.0,5.0,42,0.00,,---,0.00,VWS V14.01,2013-02-20 16:37:00,
2013-02-20 11:40:00,54.4,30.6,30.10,NNE,25,2.0,5.0,40,0.00,,---,0.00,VWS V14.01,2013-02-20 16:40:00,
2013-02-20 11:43:00,54.4,31.2,30.10,NNE,25,0.0,5.0,41,0.00,,---,0.00,VWS V14.01,2013-02-20 16:43:00,
2013-02-20 11:45:00,54.4,31.8,30.09,NNW,339,3.0,5.0,42,0.00,,---,0.00,VWS V14.01,2013-02-20 16:45:00,
2013-02-20 11:46:00,54.4,30.0,30.09,NNW,342,4.0,5.0,39,0.00,,---,0.00,VWS V14.01,2013-02-20 16:46:00,
2013-02-20 11:49:00,54.1,29.1,30.09,NNW,346,0.0,5.0,38,0.00,,---,0.00,VWS V14.01,2013-02-20 16:49:00,
2013-02-20 11:52:00,54.2,30.4,30.09,NNW,347,0.0,5.0,40,0.00,,---,0.00,VWS V14.01,2013-02-20 16:52:00,
2013-02-20 11:55:00,54.5,31.3,30.09,North,350,0.0,5.0,41,0.00,,---,0.00,VWS V14.01,2013-02-20 16:55:00,
2013-02-20 11:58:00,54.8,32.2,30.09,North,350,0.0,5.0,42,0.00,,---,0.00,VWS V14.01,2013-02-20 16:58:00,
2013-02-20 12:00:00,54.9,30.4,30.08,NNW,347,4.0,5.0,39,0.00,,---,0.00,VWS V14.01,2013-02-20 17:00:00,
2013-02-20 12:01:00,54.8,29.0,30.08,NNW,346,1.0,5.0,37,0.00,,---,0.00,VWS V14.01,2013-02-20 17:01:00,
2013-02-20 12:04:00,55.0,31.1,30.08,North,9,3.0,5.0,40,0.00,,---,0.00,VWS V14.01,2013-02-20 17:04:00,
2013-02-20 12:07:00,55.1,31.2,30.08,NW,320,4.0,5.0,40,0.00,,---,0.00,VWS V14.01,2013-02-20 17:07:00,
2013-02-20 12:10:00,55.1,31.2,30.08,NNW,332,2.0,5.0,40,0.00,,---,0.00,VWS V14.01,2013-02-20 17:10:00,
2013-02-20 12:13:00,55.2,30.7,30.08,NNW,332,0.0,5.0,39,0.00,,---,0.00,VWS V14.01,2013-02-20 17:13:00,
2013-02-20 12:15:00,55.3,31.4,30.08,NNW,335,2.0,5.0,40,0.00,,---,0.00,VWS V14.01,2013-02-20 17:15:00,
2013-02-20 12:16:00,55.3,30.1,30.08,NNW,331,2.0,3.0,38,0.00,,---,0.00,VWS V14.01,2013-02-20 17:16:00,
2013-02-20 12:19:00,55.2,30.7,30.08,NNW,342,0.0,4.0,39,0.00,,---,0.00,VWS V14.01,2013-02-20 17:19:00,
2013-02-20 12:22:00,55.5,30.3,30.08,NNW,340,2.0,4.0,38,0.00,,---,0.00,VWS V14.01,2013-02-20 17:22:00,
2013-02-20 12:25:00,55.8,31.9,30.08,NNW,333,2.0,4.0,40,0.00,,---,0.00,VWS V14.01,2013-02-20 17:25:00,
2013-02-20 12:28:00,56.2,31.0,30.08,NNW,333,0.0,4.0,38,0.00,,---,0.00,VWS V14.01,2013-02-20 17:28:00,
2013-02-20 12:30:00,56.2,31.0,30.07,NNW,333,1.0,4.0,38,0.00,,---,0.00,VWS V14.01,2013-02-20 17:30:00,
2013-02-20 12:31:00,56.3,30.4,30.07,WNW,297,1.0,4.0,37,0.00,,---,0.00,VWS V14.01,2013-02-20 17:31:00,
2013-02-20 12:34:00,56.2,29.6,30.07,NNW,331,0.0,4.0,36,0.00,,---,0.00,VWS V14.01,2013-02-20 17:34:00,
2013-02-20 12:37:00,56.2,31.0,30.07,NNW,330,0.0,4.0,38,0.00,,---,0.00,VWS V14.01,2013-02-20 17:37:00,
2013-02-20 12:40:00,56.4,31.1,30.07,NE,34,1.0,4.0,38,0.00,,---,0.00,VWS V14.01,2013-02-20 17:40:00,
2013-02-20 12:43:00,56.7,31.4,30.07,NE,38,0.0,4.0,38,0.00,,---,0.00,VWS V14.01,2013-02-20 17:43:00,
2013-02-20 12:45:00,56.7,30.7,30.06,NE,37,1.0,4.0,37,0.00,,---,0.00,VWS V14.01,2013-02-20 17:45:00,
2013-02-20 12:46:00,56.6,30.0,30.06,NE,55,2.0,2.0,36,0.00,,---,0.00,VWS V14.01,2013-02-20 17:46:00,
2013-02-20 12:49:00,56.8,32.8,30.06,SSE,164,2.0,4.0,40,0.00,,---,0.00,VWS V14.01,2013-02-20 17:49:00,
2013-02-20 12:52:00,56.9,34.7,30.06,South,172,5.0,7.0,43,0.00,,---,0.00,VWS V14.01,2013-02-20 17:52:00,
2013-02-20 12:55:00,56.6,34.4,30.06,SW,217,3.0,7.0,43,0.00,,---,0.00,VWS V14.01,2013-02-20 17:55:00,
2013-02-20 12:58:00,56.3,34.1,30.06,SSE,157,5.0,7.0,43,0.00,,---,0.00,VWS V14.01,2013-02-20 17:58:00,
2013-02-20 13:00:00,56.3,34.7,30.06,SE,130,3.0,7.0,44,0.00,,---,0.00,VWS V14.01,2013-02-20 18:00:00,
2013-02-20 13:01:00,56.1,34.5,30.06,SSE,156,5.0,5.0,44,0.00,,---,0.00,VWS V14.01,2013-02-20 18:01:00,
2013-02-20 13:04:00,55.8,34.2,30.06,SSE,148,5.0,7.0,44,0.00,,---,0.00,VWS V14.01,2013-02-20 18:04:00,
2013-02-20 13:07:00,55.6,34.0,30.06,SE,140,3.0,7.0,44,0.00,,---,0.00,VWS V14.01,2013-02-20 18:07:00,
2013-02-20 13:10:00,55.5,34.0,30.06,SSW,204,5.0,7.0,44,0.00,,---,0.00,VWS V14.01,2013-02-20 18:10:00,
2013-02-20 13:13:00,55.5,34.5,30.06,SW,234,4.0,7.0,45,0.00,,---,0.00,VWS V14.01,2013-02-20 18:13:00,
2013-02-20 13:15:00,55.5,34.0,30.05,SW,214,2.0,7.0,44,0.00,,---,0.00,VWS V14.01,2013-02-20 18:15:00,
2013-02-20 13:16:00,55.3,33.8,30.05,South,175,1.0,4.0,44,0.00,,---,0.00,VWS V14.01,2013-02-20 18:16:00,
2013-02-20 13:20:00,55.2,33.7,30.05,South,175,0.0,4.0,44,0.00,,---,0.00,VWS V14.01,2013-02-20 18:20:00,
2013-02-20 13:23:00,55.1,34.2,30.05,SSE,167,2.0,4.0,45,0.00,,---,0.00,VWS V14.01,2013-02-20 18:23:00,
2013-02-20 13:26:00,55.1,34.7,30.05,SE,142,3.0,5.0,46,0.00,,---,0.00,VWS V14.01,2013-02-20 18:26:00,
2013-02-20 13:29:00,54.8,33.9,30.05,SE,131,6.0,6.0,45,0.00,,---,0.00,VWS V14.01,2013-02-20 18:29:00,
2013-02-20 13:30:00,54.7,33.2,30.04,SE,132,2.0,6.0,44,0.00,,---,0.00,VWS V14.01,2013-02-20 18:30:00,
2013-02-20 13:32:00,54.5,33.6,30.04,SSE,155,4.0,5.0,45,0.00,,---,0.00,VWS V14.01,2013-02-20 18:32:00,
2013-02-20 13:35:00,54.4,33.5,30.04,SSW,208,1.0,5.0,45,0.00,,---,0.00,VWS V14.01,2013-02-20 18:35:00,
2013-02-20 13:38:00,54.4,33.5,30.04,ESE,121,2.0,6.0,45,0.00,,---,0.00,VWS V14.01,2013-02-20 18:38:00,
2013-02-20 13:41:00,54.2,32.8,30.04,SE,132,2.0,6.0,44,0.00,,---,0.00,VWS V14.01,2013-02-20 18:41:00,
2013-02-20 13:44:00,54.2,33.3,30.04,SE,145,3.0,6.0,45,0.00,,---,0.00,VWS V14.01,2013-02-20 18:44:00,
2013-02-20 13:45:00,54.1,32.7,30.04,SE,136,1.0,6.0,44,0.00,,---,0.00,VWS V14.01,2013-02-20 18:45:00,
2013-02-20 13:47:00,53.9,33.1,30.04,SE,140,2.0,4.0,45,0.00,,---,0.00,VWS V14.01,2013-02-20 18:47:00,
2013-02-20 13:50:00,53.7,33.4,30.04,South,171,4.0,6.0,46,0.00,,---,0.00,VWS V14.01,2013-02-20 18:50:00,
2013-02-20 13:53:00,53.7,32.9,30.04,SSE,165,3.0,6.0,45,0.00,,---,0.00,VWS V14.01,2013-02-20 18:53:00,
2013-02-20 13:56:00,53.6,33.3,30.04,SSW,195,3.0,6.0,46,0.00,,---,0.00,VWS V14.01,2013-02-20 18:56:00,
2013-02-20 13:59:00,53.7,33.4,30.04,SSW,194,2.0,6.0,46,0.00,,---,0.00,VWS V14.01,2013-02-20 18:59:00,
2013-02-20 14:00:00,53.8,33.5,30.03,SE,138,3.0,6.0,46,0.00,,---,0.00,VWS V14.01,2013-02-20 19:00:00,
2013-02-20 14:02:00,53.8,33.5,30.03,SE,134,2.0,5.0,46,0.00,,---,0.00,VWS V14.01,2013-02-20 19:02:00,
2013-02-20 14:05:00,53.9,33.6,30.03,SSW,212,1.0,5.0,46,0.00,,---,0.00,VWS V14.01,2013-02-20 19:05:00,
2013-02-20 14:08:00,53.9,34.2,30.03,SE,134,4.0,5.0,47,0.00,,---,0.00,VWS V14.01,2013-02-20 19:08:00,
2013-02-20 14:11:00,53.8,33.0,30.03,SE,142,3.0,6.0,45,0.00,,---,0.00,VWS V14.01,2013-02-20 19:11:00,
2013-02-20 14:14:00,54.0,33.7,30.03,SE,145,2.0,6.0,46,0.00,,---,0.00,VWS V14.01,2013-02-20 19:14:00,
2013-02-20 14:15:00,54.1,34.3,30.03,SSE,165,4.0,7.0,47,0.00,,---,0.00,VWS V14.01,2013-02-20 19:15:00,
2013-02-20 14:17:00,54.0,33.2,30.03,SSE,167,3.0,5.0,45,0.00,,---,0.00,VWS V14.01,2013-02-20 19:17:00,
2013-02-20 14:20:00,53.9,33.1,30.03,SSE,151,1.0,5.0,45,0.00,,---,0.00,VWS V14.01,2013-02-20 19:20:00,
2013-02-20 14:23:00,53.9,33.1,30.03,SSE,161,2.0,5.0,45,0.00,,---,0.00,VWS V14.01,2013-02-20 19:23:00,
2013-02-20 14:26:00,53.9,33.1,30.03,SSE,152,4.0,5.0,45,0.00,,---,0.00,VWS V14.01,2013-02-20 19:26:00,
2013-02-20 14:29:00,53.8,33.0,30.03,SE,128,3.0,7.0,45,0.00,,---,0.00,VWS V14.01,2013-02-20 19:29:00,
2013-02-20 14:30:00,53.7,32.9,30.03,SE,136,4.0,7.0,45,0.00,,---,0.00,VWS V14.01,2013-02-20 19:30:00,
2013-02-20 14:32:00,53.7,32.9,30.03,South,170,1.0,4.0,45,0.00,,---,0.00,VWS V14.01,2013-02-20 19:32:00,
2013-02-20 14:35:00,53.5,32.7,30.03,SE,139,2.0,7.0,45,0.00,,---,0.00,VWS V14.01,2013-02-20 19:35:00,
2013-02-20 14:38:00,53.5,33.2,30.03,SSE,148,4.0,7.0,46,0.00,,---,0.00,VWS V14.01,2013-02-20 19:38:00,
2013-02-20 14:41:00,53.4,33.2,30.03,SE,144,1.0,7.0,46,0.00,,---,0.00,VWS V14.01,2013-02-20 19:41:00,
2013-02-20 14:44:00,53.4,33.2,30.03,SSE,149,3.0,7.0,46,0.00,,---,0.00,VWS V14.01,2013-02-20 19:44:00,
2013-02-20 14:45:00,53.5,33.8,30.03,SSE,155,2.0,7.0,47,0.00,,---,0.00,VWS V14.01,2013-02-20 19:45:00,
2013-02-20 14:47:00,53.6,33.9,30.03,SSE,157,3.0,3.0,47,0.00,,---,0.00,VWS V14.01,2013-02-20 19:47:00,
2013-02-20 14:50:00,53.6,33.3,30.03,South,180,2.0,6.0,46,0.00,,---,0.00,VWS V14.01,2013-02-20 19:50:00,
2013-02-20 14:53:00,53.6,32.2,30.03,SSE,155,6.0,7.0,44,0.00,,---,0.00,VWS V14.01,2013-02-20 19:53:00,
2013-02-20 14:56:00,53.4,32.0,30.03,SSW,197,2.0,7.0,44,0.00,,---,0.00,VWS V14.01,2013-02-20 19:56:00,
2013-02-20 14:59:00,53.5,33.2,30.04,SW,225,4.0,7.0,46,0.00,,---,0.00,VWS V14.01,2013-02-20 19:59:00,
2013-02-20 15:00:00,53.5,33.2,30.04,SW,225,2.0,7.0,46,0.00,,---,0.00,VWS V14.01,2013-02-20 20:00:00,
2013-02-20 15:02:00,53.6,33.3,30.04,SSE,148,4.0,5.0,46,0.00,,---,0.00,VWS V14.01,2013-02-20 20:02:00,
2013-02-20 15:05:00,53.5,32.7,30.04,SW,221,4.0,5.0,45,0.00,,---,0.00,VWS V14.01,2013-02-20 20:05:00,
2013-02-20 15:08:00,53.5,32.7,30.04,SW,221,4.0,5.0,45,0.00,,---,0.00,VWS V14.01,2013-02-20 20:08:00,
2013-02-20 15:11:00,53.6,32.8,30.04,SSE,156,3.0,5.0,45,0.00,,---,0.00,VWS V14.01,2013-02-20 20:11:00,
2013-02-20 15:14:00,53.6,32.8,30.04,SSW,211,0.0,5.0,45,0.00,,---,0.00,VWS V14.01,2013-02-20 20:14:00,
2013-02-20 15:15:00,53.7,33.4,30.04,SW,215,4.0,5.0,46,0.00,,---,0.00,VWS V14.01,2013-02-20 20:15:00,
2013-02-20 15:17:00,53.7,32.9,30.04,SW,224,2.0,4.0,45,0.00,,---,0.00,VWS V14.01,2013-02-20 20:17:00,
2013-02-20 15:20:00,53.8,32.4,30.04,SW,223,3.0,5.0,44,0.00,,---,0.00,VWS V14.01,2013-02-20 20:20:00,
2013-02-20 15:23:00,53.7,31.8,30.04,SE,142,3.0,6.0,43,0.00,,---,0.00,VWS V14.01,2013-02-20 20:23:00,
2013-02-20 15:26:00,53.7,33.4,30.04,South,186,3.0,6.0,46,0.00,,---,0.00,VWS V14.01,2013-02-20 20:26:00,
2013-02-20 15:29:00,53.7,32.3,30.03,SSW,213,0.0,6.0,44,0.00,,---,0.00,VWS V14.01,2013-02-20 20:29:00,
2013-02-20 15:30:00,53.7,32.3,30.03,SSW,213,4.0,6.0,44,0.00,,---,0.00,VWS V14.01,2013-02-20 20:30:00,
2013-02-20 15:32:00,53.7,31.8,30.03,SW,221,6.0,6.0,43,0.00,,---,0.00,VWS V14.01,2013-02-20 20:32:00,
2013-02-20 15:35:00,53.6,31.7,30.03,SW,219,2.0,6.0,43,0.00,,---,0.00,VWS V14.01,2013-02-20 20:35:00,
2013-02-20 15:38:00,53.5,32.1,30.03,SSW,203,2.0,6.0,44,0.00,,---,0.00,VWS V14.01,2013-02-20 20:38:00,
2013-02-20 15:41:00,53.5,31.6,30.03,SW,215,2.0,6.0,43,0.00,,---,0.00,VWS V14.01,2013-02-20 20:41:00,
2013-02-20 15:44:00,53.4,31.5,30.04,SSW,199,2.0,6.0,43,0.00,,---,0.00,VWS V14.01,2013-02-20 20:44:00,
2013-02-20 15:45:00,53.5,31.6,30.04,SSE,150,2.0,6.0,43,0.00,,---,0.00,VWS V14.01,2013-02-20 20:45:00,
2013-02-20 15:47:00,53.4,31.5,30.04,SSE,164,2.0,7.0,43,0.00,,---,0.00,VWS V14.01,2013-02-20 20:47:00,
2013-02-20 15:50:00,53.4,32.0,30.04,South,170,4.0,7.0,44,0.00,,---,0.00,VWS V14.01,2013-02-20 20:50:00,
2013-02-20 15:53:00,53.5,32.1,30.04,SSW,207,1.0,7.0,44,0.00,,---,0.00,VWS V14.01,2013-02-20 20:53:00,
2013-02-20 15:56:00,53.6,32.2,30.04,SSW,209,1.0,7.0,44,0.00,,---,0.00,VWS V14.01,2013-02-20 20:56:00,
2013-02-20 15:59:00,53.6,32.8,30.04,SW,227,1.0,7.0,45,0.00,,---,0.00,VWS V14.01,2013-02-20 20:59:00,
2013-02-20 16:00:00,53.7,32.3,30.04,SW,227,1.0,7.0,44,0.00,,---,0.00,VWS V14.01,2013-02-20 21:00:00,
2013-02-20 16:02:00,53.7,32.9,30.04,SW,227,0.0,1.0,45,0.00,,---,0.00,VWS V14.01,2013-02-20 21:02:00,
2013-02-20 16:05:00,53.8,33.0,30.04,SW,227,3.0,3.0,45,0.00,,---,0.00,VWS V14.01,2013-02-20 21:05:00,
2013-02-20 16:08:00,53.8,32.4,30.04,SW,225,1.0,4.0,44,0.00,,---,0.00,VWS V14.01,2013-02-20 21:08:00,
2013-02-20 16:11:00,53.8,33.5,30.04,SSE,165,2.0,4.0,46,0.00,,---,0.00,VWS V14.01,2013-02-20 21:11:00,
2013-02-20 16:14:00,53.8,32.4,30.03,SSW,192,3.0,4.0,44,0.00,,---,0.00,VWS V14.01,2013-02-20 21:14:00,
2013-02-20 16:15:00,53.7,32.3,30.03,SW,217,5.0,7.0,44,0.00,,---,0.00,VWS V14.01,2013-02-20 21:15:00,
2013-02-20 16:17:00,53.5,32.1,30.03,SW,224,4.0,6.0,44,0.00,,---,0.00,VWS V14.01,2013-02-20 21:17:00,
2013-02-20 16:20:00,53.3,32.5,30.03,SSE,162,2.0,6.0,45,0.00,,---,0.00,VWS V14.01,2013-02-20 21:20:00,
2013-02-20 16:23:00,53.0,32.2,30.03,SW,216,2.0,6.0,45,0.00,,---,0.00,VWS V14.01,2013-02-20 21:23:00,
2013-02-20 16:26:00,52.8,32.1,30.03,SW,219,3.0,7.0,45,0.00,,---,0.00,VWS V14.01,2013-02-20 21:26:00,
2013-02-20 16:29:00,52.7,32.0,30.03,SSW,192,2.0,7.0,45,0.00,,---,0.00,VWS V14.01,2013-02-20 21:29:00,
2013-02-20 16:30:00,52.6,32.4,30.03,SSW,192,1.0,7.0,46,0.00,,---,0.00,VWS V14.01,2013-02-20 21:30:00,
2013-02-20 16:32:00,52.6,33.0,30.03,South,191,0.0,3.0,47,0.00,,---,0.00,VWS V14.01,2013-02-20 21:32:00,
2013-02-20 16:35:00,52.4,32.2,30.03,SSW,200,1.0,4.0,46,0.00,,---,0.00,VWS V14.01,2013-02-20 21:35:00,
2013-02-20 16:38:00,52.3,32.7,30.03,SSW,200,2.0,4.0,47,0.00,,---,0.00,VWS V14.01,2013-02-20 21:38:00,
2013-02-20 16:41:00,52.3,33.2,30.03,SSW,198,2.0,4.0,48,0.00,,---,0.00,VWS V14.01,2013-02-20 21:41:00,
2013-02-20 16:44:00,52.2,33.6,30.03,South,178,2.0,4.0,49,0.00,,---,0.00,VWS V14.01,2013-02-20 21:44:00,
2013-02-20 16:45:00,52.2,34.1,30.03,South,176,2.0,4.0,50,0.00,,---,0.00,VWS V14.01,2013-02-20 21:45:00,
2013-02-20 16:47:00,52.1,33.5,30.03,South,173,2.0,5.0,49,0.00,,---,0.00,VWS V14.01,2013-02-20 21:47:00,
2013-02-20 16:50:00,51.9,33.9,30.03,South,190,1.0,5.0,50,0.00,,---,0.00,VWS V14.01,2013-02-20 21:50:00,
2013-02-20 16:53:00,51.8,33.8,30.03,South,191,0.0,5.0,50,0.00,,---,0.00,VWS V14.01,2013-02-20 21:53:00,
2013-02-20 16:56:00,51.7,34.2,30.03,South,190,2.0,5.0,51,0.00,,---,0.00,VWS V14.01,2013-02-20 21:56:00,
2013-02-20 16:59:00,51.7,34.2,30.04,South,190,1.0,5.0,51,0.00,,---,0.00,VWS V14.01,2013-02-20 21:59:00,
2013-02-20 17:00:00,51.7,34.2,30.04,South,190,0.0,5.0,51,0.00,,---,0.00,VWS V14.01,2013-02-20 22:00:00,
2013-02-20 17:02:00,51.7,34.2,30.04,South,190,3.0,3.0,51,0.00,,---,0.00,VWS V14.01,2013-02-20 22:02:00,
2013-02-20 17:05:00,51.7,33.7,30.04,South,190,0.0,3.0,50,0.00,,---,0.00,VWS V14.01,2013-02-20 22:05:00,
2013-02-20 17:08:00,51.7,33.7,30.04,South,189,1.0,3.0,50,0.00,,---,0.00,VWS V14.01,2013-02-20 22:08:00,
2013-02-20 17:11:00,51.7,34.2,30.04,South,189,0.0,3.0,51,0.00,,---,0.00,VWS V14.01,2013-02-20 22:11:00,
2013-02-20 17:14:00,51.6,33.6,30.04,SSE,163,0.0,4.0,50,0.00,,---,0.00,VWS V14.01,2013-02-20 22:14:00,
2013-02-20 17:15:00,51.6,33.6,30.04,SSE,167,3.0,4.0,50,0.00,,---,0.00,VWS V14.01,2013-02-20 22:15:00,
2013-02-20 17:17:00,51.5,33.5,30.04,SW,215,2.0,5.0,50,0.00,,---,0.00,VWS V14.01,2013-02-20 22:17:00,
2013-02-20 17:20:00,51.4,33.9,30.04,SW,215,3.0,5.0,51,0.00,,---,0.00,VWS V14.01,2013-02-20 22:20:00,
2013-02-20 17:23:00,51.4,33.9,30.04,SSW,199,1.0,5.0,51,0.00,,---,0.00,VWS V14.01,2013-02-20 22:23:00,
2013-02-20 17:26:00,51.3,33.8,30.04,SSW,199,0.0,5.0,51,0.00,,---,0.00,VWS V14.01,2013-02-20 22:26:00,
2013-02-20 17:29:00,51.2,33.7,30.04,SSW,199,0.0,5.0,51,0.00,,---,0.00,VWS V14.01,2013-02-20 22:29:00,
2013-02-20 17:30:00,51.2,33.7,30.04,SSW,199,0.0,5.0,51,0.00,,---,0.00,VWS V14.01,2013-02-20 22:30:00,
2013-02-20 17:32:00,51.1,34.1,30.04,South,190,1.0,1.0,52,0.00,,---,0.00,VWS V14.01,2013-02-20 22:32:00,
2013-02-20 17:35:00,51.0,34.0,30.04,SSW,206,1.0,2.0,52,0.00,,---,0.00,VWS V14.01,2013-02-20 22:35:00,
2013-02-20 17:38:00,50.9,33.9,30.04,SSW,206,0.0,2.0,52,0.00,,---,0.00,VWS V14.01,2013-02-20 22:38:00,
2013-02-20 17:41:00,50.8,33.8,30.04,SSW,206,0.0,2.0,52,0.00,,---,0.00,VWS V14.01,2013-02-20 22:41:00,
2013-02-20 17:44:00,50.7,33.7,30.06,SW,231,2.0,3.0,52,0.00,,---,0.00,VWS V14.01,2013-02-20 22:44:00,
2013-02-20 17:45:00,50.7,33.7,30.06,SW,231,1.0,3.0,52,0.00,,---,0.00,VWS V14.01,2013-02-20 22:45:00,
2013-02-20 17:47:00,50.6,33.6,30.06,SW,231,0.0,2.0,52,0.00,,---,0.00,VWS V14.01,2013-02-20 22:47:00,
2013-02-20 17:50:00,50.6,34.1,30.06,SW,231,0.0,2.0,53,0.00,,---,0.00,VWS V14.01,2013-02-20 22:50:00,
2013-02-20 17:53:00,50.5,34.0,30.06,SW,231,1.0,2.0,53,0.00,,---,0.00,VWS V14.01,2013-02-20 22:53:00,
2013-02-20 17:56:00,50.4,33.9,30.06,SW,231,1.0,2.0,53,0.00,,---,0.00,VWS V14.01,2013-02-20 22:56:00,
2013-02-20 17:59:00,50.4,34.4,30.06,SW,231,0.0,2.0,54,0.00,,---,0.00,VWS V14.01,2013-02-20 22:59:00,
2013-02-20 18:00:00,50.3,34.3,30.06,SW,231,0.0,2.0,54,0.00,,---,0.00,VWS V14.01,2013-02-20 23:00:00,
2013-02-20 18:02:00,50.3,34.3,30.06,SW,231,0.0,0.0,54,0.00,,---,0.00,VWS V14.01,2013-02-20 23:02:00,
2013-02-20 18:05:00,50.3,34.3,30.06,SW,231,0.0,0.0,54,0.00,,---,0.00,VWS V14.01,2013-02-20 23:05:00,
2013-02-20 18:08:00,50.2,34.2,30.06,SW,231,1.0,2.0,54,0.00,,---,0.00,VWS V14.01,2013-02-20 23:08:00,
2013-02-20 18:11:00,50.2,34.2,30.06,SW,231,0.0,2.0,54,0.00,,---,0.00,VWS V14.01,2013-02-20 23:11:00,
2013-02-20 18:14:00,50.1,34.6,30.06,SW,231,0.0,2.0,55,0.00,,---,0.00,VWS V14.01,2013-02-20 23:14:00,
2013-02-20 18:15:00,50.1,34.6,30.06,SW,231,0.0,2.0,55,0.00,,---,0.00,VWS V14.01,2013-02-20 23:15:00,
2013-02-20 18:17:00,50.1,34.6,30.06,SW,231,0.0,1.0,55,0.00,,---,0.00,VWS V14.01,2013-02-20 23:17:00,
2013-02-20 18:20:00,50.0,34.9,30.06,SW,231,0.0,1.0,56,0.00,,---,0.00,VWS V14.01,2013-02-20 23:20:00,
2013-02-20 18:23:00,50.0,34.9,30.06,SW,231,0.0,1.0,56,0.00,,---,0.00,VWS V14.01,2013-02-20 23:23:00,
2013-02-20 18:26:00,50.0,34.9,30.06,SW,231,0.0,1.0,56,0.00,,---,0.00,VWS V14.01,2013-02-20 23:26:00,
2013-02-20 18:29:00,49.9,34.8,30.06,SW,231,0.0,1.0,56,0.00,,---,0.00,VWS V14.01,2013-02-20 23:29:00,
2013-02-20 18:30:00,49.9,34.8,30.06,SW,231,0.0,1.0,56,0.00,,---,0.00,VWS V14.01,2013-02-20 23:30:00,
2013-02-20 18:32:00,49.9,34.8,30.06,SW,231,0.0,0.0,56,0.00,,---,0.00,VWS V14.01,2013-02-20 23:32:00,
2013-02-20 18:35:00,49.9,35.3,30.06,SW,231,0.0,0.0,57,0.00,,---,0.00,VWS V14.01,2013-02-20 23:35:00,
2013-02-20 18:38:00,49.9,35.3,30.06,SW,231,0.0,0.0,57,0.00,,---,0.00,VWS V14.01,2013-02-20 23:38:00,
2013-02-20 18:41:00,49.8,35.2,30.06,SW,231,0.0,0.0,57,0.00,,---,0.00,VWS V14.01,2013-02-20 23:41:00,
2013-02-20 18:44:00,49.8,35.2,30.07,SW,231,0.0,0.0,57,0.00,,---,0.00,VWS V14.01,2013-02-20 23:44:00,
2013-02-20 18:45:00,49.8,35.2,30.07,SW,231,0.0,0.0,57,0.00,,---,0.00,VWS V14.01,2013-02-20 23:45:00,
2013-02-20 18:47:00,49.8,35.2,30.07,SW,231,0.0,0.0,57,0.00,,---,0.00,VWS V14.01,2013-02-20 23:47:00,
2013-02-20 18:50:00,49.8,35.6,30.07,SW,231,0.0,0.0,58,0.00,,---,0.00,VWS V14.01,2013-02-20 23:50:00,
2013-02-20 18:53:00,49.8,35.6,30.07,SW,231,0.0,0.0,58,0.00,,---,0.00,VWS V14.01,2013-02-20 23:53:00,
2013-02-20 18:57:00,49.7,35.5,30.07,SW,231,0.0,0.0,58,0.00,,---,0.00,VWS V14.01,2013-02-20 23:57:00,
2013-02-20 19:00:00,49.7,35.5,30.07,SW,231,0.0,0.0,58,0.00,,---,0.00,VWS V14.01,2013-02-21 00:00:00,
2013-02-20 19:03:00,49.7,36.0,30.07,SW,231,0.0,0.0,59,0.00,,---,0.00,VWS V14.01,2013-02-21 00:03:00,
2013-02-20 19:06:00,49.7,36.0,30.07,SW,231,0.0,0.0,59,0.00,,---,0.00,VWS V14.01,2013-02-21 00:06:00,
2013-02-20 19:09:00,49.7,36.0,30.07,SW,231,0.0,0.0,59,0.00,,---,0.00,VWS V14.01,2013-02-21 00:09:00,
2013-02-20 19:12:00,49.7,36.0,30.07,SW,231,0.0,0.0,59,0.00,,---,0.00,VWS V14.01,2013-02-21 00:12:00,
2013-02-20 19:15:00,49.7,36.0,30.07,SW,231,0.0,0.0,59,0.00,,---,0.00,VWS V14.01,2013-02-21 00:15:00,
2013-02-20 19:18:00,49.7,36.0,30.07,SW,231,0.0,0.0,59,0.00,,---,0.00,VWS V14.01,2013-02-21 00:18:00,
2013-02-20 19:21:00,49.6,35.9,30.07,SW,231,0.0,0.0,59,0.00,,---,0.00,VWS V14.01,2013-02-21 00:21:00,
2013-02-20 19:24:00,49.6,36.3,30.07,SW,231,0.0,0.0,60,0.00,,---,0.00,VWS V14.01,2013-02-21 00:24:00,
2013-02-20 19:27:00,49.6,36.3,30.07,SW,231,0.0,0.0,60,0.00,,---,0.00,VWS V14.01,2013-02-21 00:27:00,
2013-02-20 19:30:00,49.6,36.3,30.08,SW,231,0.0,0.0,60,0.00,,---,0.00,VWS V14.01,2013-02-21 00:30:00,
2013-02-20 19:33:00,49.5,36.6,30.08,SW,231,0.0,0.0,61,0.00,,---,0.00,VWS V14.01,2013-02-21 00:33:00,
2013-02-20 19:36:00,49.5,36.6,30.08,SW,231,0.0,0.0,61,0.00,,---,0.00,VWS V14.01,2013-02-21 00:36:00,
2013-02-20 19:39:00,49.5,36.6,30.08,SW,231,0.0,0.0,61,0.00,,---,0.00,VWS V14.01,2013-02-21 00:39:00,
2013-02-20 19:42:00,49.5,36.6,30.08,SW,231,0.0,0.0,61,0.00,,---,0.00,VWS V14.01,2013-02-21 00:42:00,
2013-02-20 19:45:00,49.4,36.5,30.08,SW,231,0.0,0.0,61,0.00,,---,0.00,VWS V14.01,2013-02-21 00:45:00,
2013-02-20 19:48:00,49.4,36.1,30.08,SW,231,0.0,0.0,60,0.00,,---,0.00,VWS V14.01,2013-02-21 00:48:00,
2013-02-20 19:51:00,49.4,36.5,30.08,SW,231,0.0,0.0,61,0.00,,---,0.00,VWS V14.01,2013-02-21 00:51:00,
2013-02-20 19:54:00,49.4,37.3,30.08,SW,231,0.0,0.0,63,0.00,,---,0.00,VWS V14.01,2013-02-21 00:54:00,
2013-02-20 19:57:00,49.3,37.2,30.08,SW,231,0.0,0.0,63,0.00,,---,0.00,VWS V14.01,2013-02-21 00:57:00,
2013-02-20 20:00:00,49.2,37.6,30.06,SW,231,0.0,0.0,64,0.00,,---,0.00,VWS V14.01,2013-02-21 01:00:00,
2013-02-20 20:03:00,49.2,37.6,30.06,SW,231,0.0,0.0,64,0.00,,---,0.00,VWS V14.01,2013-02-21 01:03:00,
2013-02-20 20:06:00,49.1,37.1,30.06,SW,231,0.0,0.0,63,0.00,,---,0.00,VWS V14.01,2013-02-21 01:06:00,
2013-02-20 20:09:00,49.1,37.1,30.06,SW,231,0.0,0.0,63,0.00,,---,0.00,VWS V14.01,2013-02-21 01:09:00,
2013-02-20 20:12:00,49.1,37.1,30.06,SW,231,0.0,0.0,63,0.00,,---,0.00,VWS V14.01,2013-02-21 01:12:00,
2013-02-20 20:15:00,49.0,37.4,30.07,SW,231,0.0,0.0,64,0.00,,---,0.00,VWS V14.01,2013-02-21 01:15:00,
2013-02-20 20:18:00,49.0,37.4,30.07,SW,231,0.0,0.0,64,0.00,,---,0.00,VWS V14.01,2013-02-21 01:18:00,
2013-02-20 20:21:00,49.0,37.4,30.07,SW,231,0.0,0.0,64,0.00,,---,0.00,VWS V14.01,2013-02-21 01:21:00,
2013-02-20 20:24:00,48.9,37.7,30.07,SW,231,0.0,0.0,65,0.00,,---,0.00,VWS V14.01,2013-02-21 01:24:00,
2013-02-20 20:27:00,48.9,38.1,30.07,SW,231,0.0,0.0,66,0.00,,---,0.00,VWS V14.01,2013-02-21 01:27:00,
2013-02-20 20:30:00,48.8,38.0,30.04,SW,231,0.0,0.0,66,0.00,,---,0.00,VWS V14.01,2013-02-21 01:30:00,
2013-02-20 20:33:00,48.8,38.0,30.04,SW,231,0.0,0.0,66,0.00,,---,0.00,VWS V14.01,2013-02-21 01:33:00,
2013-02-20 20:36:00,48.7,37.1,30.04,SW,231,0.0,0.0,64,0.00,,---,0.00,VWS V14.01,2013-02-21 01:36:00,
2013-02-20 20:39:00,48.7,37.1,30.04,SW,231,1.0,1.0,64,0.00,,---,0.00,VWS V14.01,2013-02-21 01:39:00,
2013-02-20 20:42:00,48.7,37.1,30.04,SW,231,0.0,1.0,64,0.00,,---,0.00,VWS V14.01,2013-02-21 01:42:00,
2013-02-20 20:45:00,48.7,37.1,30.06,SW,231,0.0,1.0,64,0.00,,---,0.00,VWS V14.01,2013-02-21 01:45:00,
2013-02-20 20:48:00,48.7,37.1,30.06,SW,231,0.0,0.0,64,0.00,,---,0.00,VWS V14.01,2013-02-21 01:48:00,
2013-02-20 20:51:00,48.7,37.1,30.06,SW,231,0.0,0.0,64,0.00,,---,0.00,VWS V14.01,2013-02-21 01:51:00,
2013-02-20 20:54:00,48.7,37.1,30.06,SW,231,0.0,0.0,64,0.00,,---,0.00,VWS V14.01,2013-02-21 01:54:00,
2013-02-20 20:57:00,48.7,37.1,30.06,SW,231,0.0,0.0,64,0.00,,---,0.00,VWS V14.01,2013-02-21 01:57:00,
2013-02-20 21:00:00,48.7,37.5,30.05,SW,231,0.0,0.0,65,0.00,,---,0.00,VWS V14.01,2013-02-21 02:00:00,
2013-02-20 21:03:00,48.7,37.5,30.05,SW,231,0.0,0.0,65,0.00,,---,0.00,VWS V14.01,2013-02-21 02:03:00,
2013-02-20 21:06:00,48.7,37.5,30.05,SW,231,0.0,0.0,65,0.00,,---,0.00,VWS V14.01,2013-02-21 02:06:00,
2013-02-20 21:09:00,48.7,37.5,30.05,SW,231,0.0,0.0,65,0.00,,---,0.00,VWS V14.01,2013-02-21 02:09:00,
2013-02-20 21:12:00,48.7,37.5,30.05,SW,231,0.0,0.0,65,0.00,,---,0.00,VWS V14.01,2013-02-21 02:12:00,
2013-02-20 21:15:00,48.7,37.5,30.04,SW,231,0.0,0.0,65,0.00,,---,0.00,VWS V14.01,2013-02-21 02:15:00,
2013-02-20 21:18:00,48.7,37.9,30.04,SW,231,0.0,0.0,66,0.00,,---,0.00,VWS V14.01,2013-02-21 02:18:00,
2013-02-20 21:21:00,48.6,37.8,30.04,SW,231,0.0,0.0,66,0.00,,---,0.00,VWS V14.01,2013-02-21 02:21:00,
2013-02-20 21:24:00,48.6,37.8,30.04,SW,231,0.0,0.0,66,0.00,,---,0.00,VWS V14.01,2013-02-21 02:24:00,
2013-02-20 21:27:00,48.6,37.8,30.04,SW,231,0.0,0.0,66,0.00,,---,0.00,VWS V14.01,2013-02-21 02:27:00,
2013-02-20 21:30:00,48.6,38.2,30.06,SW,231,0.0,0.0,67,0.00,,---,0.00,VWS V14.01,2013-02-21 02:30:00,
2013-02-20 21:33:00,48.6,38.2,30.06,SW,231,0.0,3.0,67,0.00,,---,0.00,VWS V14.01,2013-02-21 02:33:00,
2013-02-20 21:36:00,48.6,38.5,30.06,SW,231,3.0,3.0,68,0.00,,---,0.00,VWS V14.01,2013-02-21 02:36:00,
2013-02-20 21:39:00,48.6,38.9,30.06,SW,231,0.0,3.0,69,0.00,,---,0.00,VWS V14.01,2013-02-21 02:39:00,
2013-02-20 21:42:00,48.6,38.9,30.06,SW,231,2.0,3.0,69,0.00,,---,0.00,VWS V14.01,2013-02-21 02:42:00,
2013-02-20 21:45:00,48.6,38.9,30.06,SW,231,0.0,3.0,69,0.00,,---,0.00,VWS V14.01,2013-02-21 02:45:00,
2013-02-20 21:48:00,48.6,38.9,30.06,SW,231,0.0,1.0,69,0.00,,---,0.00,VWS V14.01,2013-02-21 02:48:00,
2013-02-20 21:51:00,48.6,38.9,30.06,SW,231,0.0,1.0,69,0.00,,---,0.00,VWS V14.01,2013-02-21 02:51:00,
2013-02-20 21:54:00,48.6,38.9,30.06,SW,231,0.0,1.0,69,0.00,,---,0.00,VWS V14.01,2013-02-21 02:54:00,
2013-02-20 21:57:00,48.6,39.3,30.06,SW,231,0.0,1.0,70,0.00,,---,0.00,VWS V14.01,2013-02-21 02:57:00,
2013-02-20 22:00:00,48.6,39.3,30.07,SW,231,0.0,1.0,70,0.00,,---,0.00,VWS V14.01,2013-02-21 03:00:00,
2013-02-20 22:03:00,48.5,39.5,30.07,SW,231,0.0,0.0,71,0.00,,---,0.00,VWS V14.01,2013-02-21 03:03:00,
2013-02-20 22:06:00,48.5,39.5,30.07,SW,231,0.0,0.0,71,0.00,,---,0.00,VWS V14.01,2013-02-21 03:06:00,
2013-02-20 22:09:00,48.4,39.4,30.07,SW,231,0.0,0.0,71,0.00,,---,0.00,VWS V14.01,2013-02-21 03:09:00,
2013-02-20 22:12:00,48.4,39.4,30.07,SW,231,0.0,0.0,71,0.00,,---,0.00,VWS V14.01,2013-02-21 03:12:00,
2013-02-20 22:15:00,48.4,39.4,30.06,SW,231,0.0,0.0,71,0.00,,---,0.00,VWS V14.01,2013-02-21 03:15:00,
2013-02-20 22:18:00,48.3,39.7,30.06,SW,231,0.0,0.0,72,0.00,,---,0.00,VWS V14.01,2013-02-21 03:18:00,
2013-02-20 22:21:00,48.3,39.7,30.06,SW,231,0.0,0.0,72,0.00,,---,0.00,VWS V14.01,2013-02-21 03:21:00,
2013-02-20 22:24:00,48.3,40.1,30.06,SW,231,0.0,0.0,73,0.00,,---,0.00,VWS V14.01,2013-02-21 03:24:00,
2013-02-20 22:27:00,48.2,39.6,30.06,SW,231,0.0,0.0,72,0.00,,---,0.00,VWS V14.01,2013-02-21 03:27:00,
2013-02-20 22:30:00,48.2,39.6,30.06,SW,231,0.0,0.0,72,0.00,,---,0.00,VWS V14.01,2013-02-21 03:30:00,
2013-02-20 22:33:00,48.1,39.5,30.06,SW,231,0.0,0.0,72,0.00,,---,0.00,VWS V14.01,2013-02-21 03:33:00,
2013-02-20 22:36:00,48.1,39.5,30.06,SW,231,0.0,0.0,72,0.00,,---,0.00,VWS V14.01,2013-02-21 03:36:00,
2013-02-20 22:39:00,48.0,39.4,30.06,SW,231,0.0,0.0,72,0.00,,---,0.00,VWS V14.01,2013-02-21 03:39:00,
2013-02-20 22:42:00,47.9,39.3,30.06,SW,231,0.0,0.0,72,0.00,,---,0.00,VWS V14.01,2013-02-21 03:42:00,
2013-02-20 22:45:00,47.9,39.3,30.06,SW,231,0.0,0.0,72,0.00,,---,0.00,VWS V14.01,2013-02-21 03:45:00,
2013-02-20 22:48:00,47.8,39.6,30.06,SW,231,0.0,0.0,73,0.00,,---,0.00,VWS V14.01,2013-02-21 03:48:00,
2013-02-20 22:51:00,47.7,39.1,30.06,SW,231,0.0,0.0,72,0.00,,---,0.00,VWS V14.01,2013-02-21 03:51:00,
2013-02-20 22:54:00,47.6,39.4,30.06,SW,231,0.0,0.0,73,0.00,,---,0.00,VWS V14.01,2013-02-21 03:54:00,
2013-02-20 23:00:00,47.3,39.1,30.06,SW,231,0.0,0.0,73,0.00,,---,0.00,VWS V14.01,2013-02-21 04:00:00,
2013-02-20 23:03:00,47.2,39.0,30.06,SW,231,0.0,0.0,73,0.00,,---,0.00,VWS V14.01,2013-02-21 04:03:00,
2013-02-20 23:06:00,47.1,38.9,30.06,SW,231,0.0,0.0,73,0.00,,---,0.00,VWS V14.01,2013-02-21 04:06:00,
2013-02-20 23:08:00,47.4,39.2,30.06,SW,231,0.0,0.0,73,0.00,,---,0.00,VWS V14.01,2013-02-21 04:08:00,
2013-02-20 23:09:00,46.9,39.1,30.06,SW,231,0.0,0.0,74,0.00,,---,0.00,VWS V14.01,2013-02-21 04:09:00,
2013-02-20 23:12:00,46.7,39.2,30.06,SW,231,0.0,0.0,75,0.00,,---,0.00,VWS V14.01,2013-02-21 04:12:00,
2013-02-20 23:15:00,46.5,39.4,30.06,SW,231,0.0,0.0,76,0.00,,---,0.00,VWS V14.01,2013-02-21 04:15:00,
2013-02-20 23:18:00,46.2,39.1,30.06,SW,231,0.0,0.0,76,0.00,,---,0.00,VWS V14.01,2013-02-21 04:18:00,
2013-02-20 23:24:00,46.0,38.9,30.06,SW,231,0.0,0.0,76,0.00,,---,0.00,VWS V14.01,2013-02-21 04:24:00,
2013-02-20 23:30:00,45.8,38.3,30.06,SW,231,0.0,0.0,75,0.00,,---,0.00,VWS V14.01,2013-02-21 04:30:00,
2013-02-20 23:32:00,46.1,39.0,30.06,SW,231,0.0,0.0,76,0.00,,---,0.00,VWS V14.01,2013-02-21 04:32:00,
2013-02-20 23:36:00,45.4,38.6,30.06,SW,231,0.0,0.0,77,0.00,,---,0.00,VWS V14.01,2013-02-21 04:36:00,
2013-02-20 23:38:00,45.8,38.3,30.06,SW,231,0.0,0.0,75,0.00,,---,0.00,VWS V14.01,2013-02-21 04:38:00,
2013-02-20 23:39:00,45.2,38.8,30.06,SW,231,0.0,0.0,78,0.00,,---,0.00,VWS V14.01,2013-02-21 04:39:00,
2013-02-20 23:42:00,45.1,38.3,30.06,SW,231,0.0,0.0,77,0.00,,---,0.00,VWS V14.01,2013-02-21 04:42:00,
2013-02-20 23:44:00,45.5,38.4,30.06,SW,231,0.0,0.0,76,0.00,,---,0.00,VWS V14.01,2013-02-21 04:44:00,
2013-02-20 23:45:00,45.0,38.2,30.07,SW,231,0.0,0.0,77,0.00,,---,0.00,VWS V14.01,2013-02-21 04:45:00,
2013-02-20 23:51:00,44.7,37.9,30.07,SW,231,0.0,0.0,77,0.00,,---,0.00,VWS V14.01,2013-02-21 04:51:00,
2013-02-20 23:55:00,44.6,38.2,30.07,SW,231,0.0,0.0,78,0.00,,---,0.00,VWS V14.01,2013-02-21 04:55:00,
2013-02-20 23:58:00,44.5,38.1,30.07,SW,231,0.0,0.0,78,0.00,,---,0.00,VWS V14.01,2013-02-21 04:58:00,
2013-02-20 23:59:00,44.8,37.7,30.07,SW,231,0.0,0.0,76,0.00,,---,0.00,VWS V14.01,2013-02-21 04:59:00,